FW0225 Weather Reports


Display with metric or nautical units.
time (UTC)temp
F
wind
direction
speed
MPH
gust
MPH
rain 1hr
in
rain 24hr
in
rain mn
in
humidity
%
barometer
mb
20260507205018 51 209 0.0 0.0 0.00 0.04 0.00 88 1015.9
20260507204522 51 209 0.0 0.0 0.00 0.04 0.00 88 1015.8
20260507204022 51 209 0.0 0.0 0.00 0.04 0.00 88 1015.8
20260507203524 51 209 0.0 0.0 0.00 0.04 0.00 87 1015.7
20260507203015 52 209 0.0 0.0 0.00 0.04 0.00 87 1015.6
20260507202519 52 209 0.0 0.0 0.00 0.04 0.00 87 1015.5
20260507202019 52 209 0.0 0.0 0.00 0.04 0.00 87 1015.5
20260507201527 52 209 0.0 0.0 0.00 0.04 0.00 87 1015.4
20260507201028 52 209 0.0 0.0 0.00 0.04 0.00 87 1015.3
20260507200530 52 209 0.0 0.0 0.00 0.04 0.00 87 1015.3
20260507200021 52 209 0.0 0.0 0.00 0.04 0.00 86 1015.2
20260507195525 52 209 0.0 1.0 0.00 0.04 0.00 86 1015.1
20260507195024 52 209 0.0 1.0 0.00 0.04 0.00 86 1015.1
20260507194527 53 209 0.0 1.0 0.00 0.04 0.00 86 1015.1
20260507194024 53 209 0.0 0.0 0.00 0.04 0.00 85 1014.9
20260507193525 53 209 0.0 0.0 0.00 0.04 0.00 85 1014.8
20260507193018 53 209 0.0 0.0 0.00 0.04 0.00 85 1014.7
20260507192521 53 209 0.0 1.0 0.00 0.04 0.00 85 1014.6
20260507192022 54 209 0.0 1.0 0.00 0.04 0.00 85 1014.5
20260507191527 54 209 0.0 1.0 0.00 0.04 0.00 84 1014.5
20260507191027 54 209 0.0 0.0 0.00 0.04 0.00 84 1014.3
20260507190514 54 209 0.0 1.0 0.00 0.04 0.00 83 1014.2
20260507190026 55 209 0.0 1.0 0.00 1.18 0.00 84 1014.2
20260507185529 55 209 0.0 0.0 0.00 1.18 0.00 83 1014.1
20260507185051 55 209 0.0 0.0 0.00 1.18 0.00 83 1014.0
20260507184513 56 209 0.0 0.0 0.00 1.18 0.00 82 1013.9
20260507184032 56 209 0.0 0.0 0.00 1.18 0.00 82 1013.9
20260507183514 56 209 0.0 1.0 0.00 1.18 0.00 81 1013.7
20260507183047 57 209 1.0 1.0 0.00 1.18 0.00 81 1013.7
20260507182530 57 209 0.0 0.0 0.00 1.18 0.00 81 1013.6
20260507182031 57 209 0.0 1.0 0.00 1.18 0.00 80 1013.5
20260507181513 58 209 0.0 1.0 0.00 1.18 0.00 81 1013.4
20260507181033 58 209 0.0 1.0 0.00 1.18 0.00 81 1013.4
20260507180515 59 209 0.0 1.0 0.00 1.18 0.00 81 1013.4
20260507180028 59 209 0.0 1.0 0.00 1.26 0.00 81 1013.3
20260507175530 59 209 0.0 1.0 0.00 1.26 0.00 81 1013.3
20260507175049 60 209 0.0 0.0 0.00 1.26 0.00 80 1013.3
20260507174530 60 209 0.0 0.0 0.00 1.26 0.00 82 1013.3
20260507174029 61 209 0.0 0.0 0.00 1.26 0.00 82 1013.3
20260507173516 61 209 0.0 1.0 0.00 1.26 0.00 82 1013.3
20260507173045 61 209 0.0 2.0 0.00 1.26 0.00 82 1013.3
20260507172511 61 209 1.0 2.0 0.00 1.26 0.00 81 1013.2
20260507172030 61 209 0.0 2.0 0.00 1.26 0.00 80 1013.1
20260507171511 61 209 1.0 2.0 0.00 1.26 0.00 80 1013.1
20260507171030 62 209 0.0 0.0 0.00 1.26 0.00 81 1013.2
20260507170535 62 209 0.0 0.0 0.00 1.26 0.00 80 1013.2
20260507170045 62 209 0.0 2.0 0.00 2.64 0.00 81 1013.1
20260507165528 62 209 0.0 4.0 0.00 2.64 0.00 80 1013.1
20260507165030 62 209 2.0 4.0 0.00 2.64 0.00 79 1013.1
20260507164534 62 208 1.0 1.0 0.00 2.64 0.00 80 1013.1
20260507164012 62 208 0.0 1.0 0.00 2.64 0.00 78 1013.1
20260507163516 63 208 0.0 1.0 0.00 2.64 0.00 78 1013.1
20260507163047 63 208 0.0 1.0 0.00 2.64 0.00 78 1013.2
20260507162528 63 208 0.0 2.0 0.00 2.64 0.00 77 1013.3
20260507162027 63 208 1.0 2.0 0.00 2.64 0.00 75 1013.4
20260507161529 63 208 0.0 1.0 0.00 2.64 0.00 75 1013.3
20260507161028 64 208 0.0 1.0 0.00 2.64 0.00 74 1013.2
20260507160530 64 208 0.0 1.0 0.00 2.64 0.00 73 1013.1
20260507160023 64 208 0.0 4.0 0.00 2.64 0.00 71 1013.0
20260507155546 65 208 1.0 4.0 0.00 2.64 0.00 70 1013.0
20260507155029 66 208 1.0 5.0 0.00 2.64 0.00 70 1013.1
20260507154531 66 208 2.0 8.0 0.00 2.64 0.00 67 1013.0
20260507154030 67 211 3.0 8.0 0.00 2.64 0.00 64 1012.8
20260507153531 67 216 4.0 8.0 0.00 2.64 0.00 59 1012.8
20260507153024 67 211 4.0 8.0 0.00 2.64 0.00 64 1012.7
20260507152527 67 221 5.0 8.0 0.00 2.64 0.00 63 1012.7
20260507152026 68 217 4.0 9.0 0.00 2.64 0.00 64 1012.8
20260507151530 68 222 5.0 9.0 0.00 2.64 0.00 60 1012.6
20260507151030 69 217 3.0 8.0 0.00 2.64 0.00 61 1012.4
20260507150513 70 207 3.0 7.0 0.00 2.64 0.00 63 1012.2
20260507150026 71 204 4.0 8.0 0.00 2.64 0.00 62 1011.9
20260507145528 71 199 3.0 8.0 0.00 2.64 0.00 58 1011.7
20260507145029 71 213 3.0 10.0 0.00 2.64 0.00 58 1011.7
20260507144512 71 221 3.0 7.0 0.00 2.64 0.00 59 1011.6
20260507144031 72 223 5.0 7.0 0.00 2.64 0.00 55 1011.5
20260507143517 72 242 2.0 7.0 0.00 2.64 0.00 56 1011.5
20260507143045 72 215 3.0 8.0 0.00 2.64 0.00 52 1011.5
20260507142533 71 203 4.0 8.0 0.00 2.64 0.00 52 1011.5
20260507142011 71 227 4.0 8.0 0.00 2.64 0.00 56 1011.5
20260507141514 71 208 3.0 6.0 0.00 2.64 0.00 53 1011.5
20260507141012 71 202 2.0 5.0 0.00 2.64 0.00 53 1011.4
20260507140516 71 215 1.0 6.0 0.00 2.64 0.00 55 1011.5
20260507140029 72 215 3.0 9.0 0.00 2.64 0.00 50 1011.5
20260507135512 72 203 5.0 9.0 0.00 2.64 0.00 53 1011.5
20260507135011 72 209 2.0 7.0 0.00 2.64 0.00 53 1011.5
20260507134515 73 211 5.0 7.0 0.00 2.64 0.00 52 1011.6
20260507134016 73 196 3.0 6.0 0.00 2.64 0.00 52 1011.6
20260507133518 73 216 2.0 5.0 0.00 2.64 0.00 51 1011.6
20260507133031 72 217 2.0 7.0 0.00 2.64 0.00 47 1011.8
20260507132513 73 204 4.0 8.0 0.00 2.64 0.00 52 1011.7
20260507132017 73 196 5.0 8.0 0.00 2.64 0.00 55 1011.7
20260507131540 72 199 1.0 7.0 0.00 2.64 0.00 61 1011.7
20260507131019 71 204 2.0 9.0 0.00 2.64 0.00 60 1011.8
20260507130522 72 227 4.0 9.0 0.00 2.64 0.00 59 1011.8
20260507130014 72 215 2.0 7.0 0.00 2.99 0.00 60 1011.8
20260507125518 72 209 3.0 8.0 0.00 2.99 0.00 59 1011.9
20260507125017 72 219 4.0 8.0 0.00 2.99 0.00 57 1011.9
20260507124522 72 234 4.0 8.0 0.00 2.99 0.00 59 1011.9
20260507124022 73 214 3.0 6.0 0.00 2.99 0.00 60 1011.9
20260507123545 72 211 1.0 6.0 0.00 2.99 0.00 60 1011.8
20260507123018 72 205 2.0 5.0 0.00 2.99 0.00 58 1011.8
20260507122543 71 205 3.0 5.0 0.00 2.99 0.00 57 1011.9
20260507122044 71 240 1.0 6.0 0.00 2.99 0.00 61 1011.9
20260507121546 71 234 3.0 6.0 0.00 2.99 0.00 61 1011.9
20260507121045 71 211 3.0 7.0 0.00 2.99 0.00 61 1012.0
20260507120548 70 227 3.0 9.0 0.00 2.99 0.00 62 1012.0
20260507120021 71 211 5.0 10.0 0.00 3.35 0.00 59 1012.1
20260507115524 71 205 4.0 10.0 0.00 3.35 0.00 57 1012.1
20260507115023 71 203 3.0 6.0 0.00 3.35 0.00 60 1012.1
20260507114546 71 202 3.0 7.0 0.00 3.35 0.00 60 1012.1
20260507114023 71 234 4.0 7.0 0.00 3.35 0.00 59 1012.1
20260507113527 72 209 2.0 7.0 0.00 3.35 0.00 59 1012.2
20260507113019 71 195 2.0 8.0 0.00 3.35 0.00 60 1012.2
20260507112522 71 194 4.0 10.0 0.00 3.35 0.00 62 1012.3
20260507112023 71 207 3.0 9.0 0.00 3.35 0.00 60 1012.3
20260507111530 71 196 4.0 8.0 0.00 3.35 0.00 63 1012.4
20260507111029 71 209 2.0 7.0 0.00 3.35 0.00 63 1012.3
20260507110513 71 216 4.0 7.0 0.00 3.35 0.00 63 1012.3
20260507110024 70 223 3.0 9.0 0.00 3.50 0.00 63 1012.3
20260507105525 70 217 4.0 9.0 0.00 3.50 0.00 67 1012.4
20260507105024 69 200 2.0 9.0 0.00 3.50 0.00 66 1012.5
20260507104526 70 198 5.0 10.0 0.00 3.50 0.00 65 1012.6
20260507104026 70 250 3.0 10.0 0.00 3.50 0.00 66 1012.6
20260507103530 70 217 2.0 8.0 0.00 3.50 0.00 66 1012.6
20260507103021 70 216 3.0 8.0 0.00 3.50 0.00 67 1012.6
20260507102525 70 193 2.0 5.0 0.00 3.50 0.00 65 1012.5
20260507102026 70 157 1.0 6.0 0.00 3.50 0.00 64 1012.6
20260507101527 70 207 3.0 9.0 0.00 3.50 0.00 64 1012.6
20260507101026 70 209 4.0 9.0 0.00 3.50 0.00 65 1012.7
20260507100530 69 203 4.0 8.0 0.00 3.50 0.00 68 1012.7
20260507100022 69 232 4.0 8.0 0.00 3.54 0.00 69 1012.7
20260507095529 68 186 4.0 8.0 0.00 3.54 0.00 70 1012.6
20260507095050 68 204 2.0 6.0 0.00 3.54 0.00 71 1012.6
20260507094532 67 232 2.0 7.0 0.00 3.54 0.00 72 1012.6
20260507094012 67 236 4.0 8.0 0.00 3.54 0.00 71 1012.6
20260507093515 67 247 3.0 8.0 0.00 3.54 0.00 70 1012.6
20260507093026 68 221 3.0 8.0 0.00 3.54 0.00 70 1012.6
20260507092530 68 221 5.0 8.0 0.00 3.54 0.00 72 1012.6
20260507092028 68 202 3.0 9.0 0.00 3.54 0.00 72 1012.6
20260507091530 67 199 3.0 9.0 0.00 3.54 0.00 75 1012.6
20260507091031 67 238 5.0 8.0 0.00 3.54 0.00 77 1012.5
20260507090533 66 228 2.0 4.0 0.00 3.54 0.00 81 1012.5
20260507090024 65 225 2.0 6.0 0.00 3.98 0.00 82 1012.5
20260507085525 65 224 3.0 6.0 0.00 3.98 0.00 81 1012.5
20260507085024 65 230 2.0 4.0 0.00 3.98 0.00 82 1012.5
20260507084525 65 231 0.0 2.0 0.00 3.98 0.00 86 1012.5
20260507084023 65 231 0.0 3.0 0.00 3.98 0.00 86 1012.4
20260507083531 65 231 1.0 3.0 0.00 3.98 0.00 83 1012.5
20260507083023 65 230 1.0 4.0 0.00 3.98 0.00 83 1012.5
20260507082527 65 229 1.0 4.0 0.00 3.98 0.00 83 1012.4
20260507082026 66 229 1.0 4.0 0.00 3.98 0.00 81 1012.4
20260507081529 66 229 2.0 4.0 0.00 3.98 0.00 82 1012.4
20260507081031 65 232 1.0 4.0 0.00 3.98 0.00 84 1012.3
20260507080512 64 235 1.0 4.0 0.00 3.98 0.00 84 1012.3
20260507080024 64 236 2.0 4.0 0.00 4.49 0.00 85 1012.3
20260507075528 64 236 2.0 4.0 0.00 4.49 0.00 85 1012.3
20260507075030 64 232 2.0 5.0 0.00 4.49 0.00 85 1012.2
20260507074515 64 231 2.0 5.0 0.00 4.49 0.00 84 1012.3
20260507074015 65 247 1.0 3.0 0.00 4.49 0.00 84 1012.2
20260507073522 65 248 2.0 4.0 0.00 4.49 0.00 84 1012.2
20260507073015 65 248 1.0 4.0 0.00 4.49 0.00 84 1012.2
20260507072518 65 251 2.0 6.0 0.00 4.49 0.00 84 1012.2
20260507072018 64 263 2.0 6.0 0.00 4.49 0.00 84 1012.2
20260507071541 64 279 2.0 5.0 0.00 4.49 0.00 87 1012.1
20260507071019 63 288 0.0 2.0 0.00 4.49 0.00 89 1012.1
20260507070524 63 288 1.0 2.0 0.00 4.49 0.00 89 1012.0
20260507070015 62 287 1.0 2.0 0.00 6.42 0.00 90 1012.1
20260507065516 61 288 0.0 2.0 0.00 6.42 0.00 92 1012.1
20260507065015 61 288 0.0 2.0 0.00 6.42 0.00 92 1012.1
20260507064518 61 288 1.0 2.0 0.00 6.42 0.00 92 1012.0
20260507064016 61 288 1.0 3.0 0.00 6.42 0.00 92 1012.0
20260507063541 60 288 2.0 3.0 0.00 6.42 0.00 93 1012.0
20260507063032 60 285 2.0 3.0 0.00 6.42 0.00 94 1011.9
20260507062515 60 283 0.0 1.0 0.00 6.42 0.00 94 1011.9
20260507062013 59 283 0.0 1.0 0.00 6.42 0.00 94 1011.9
20260507061518 59 283 0.0 0.0 0.00 6.42 0.00 94 1011.9
20260507061019 59 283 0.0 0.0 0.00 6.42 0.00 94 1012.0
20260507060524 59 283 0.0 2.0 0.00 6.42 0.00 94 1012.0
20260507060015 59 283 0.0 3.0 0.00 6.42 0.00 94 1012.1
20260507055538 59 283 1.0 3.0 0.00 6.42 0.00 94 1012.0
20260507055039 59 283 1.0 4.0 0.00 6.42 0.00 95 1011.8
20260507054539 59 283 2.0 4.0 0.00 6.42 0.00 95 1011.8
20260507054022 59 279 1.0 3.0 0.00 6.42 0.00 95 1011.8
20260507053544 58 279 1.0 2.0 0.00 6.42 0.00 95 1011.7
20260507053015 58 279 1.0 3.0 0.00 6.42 0.00 95 1011.7
20260507052540 58 279 1.0 4.0 0.00 6.42 0.00 94 1011.7
20260507052020 58 278 2.0 4.0 0.00 6.42 0.00 94 1011.7
20260507051523 58 273 2.0 4.0 0.00 6.42 0.00 94 1011.6
20260507051022 58 270 2.0 4.0 0.00 6.42 0.00 94 1011.5
20260507050546 58 267 0.0 2.0 0.00 6.42 0.00 95 1011.5
20260507050016 58 267 0.0 2.0 0.00 6.42 0.00 94 1011.4
20260507045540 58 267 0.0 2.0 0.00 6.42 0.00 94 1011.3
20260507045019 58 267 0.0 3.0 0.00 6.42 0.00 94 1011.3
20260507044522 58 267 2.0 3.0 0.00 6.42 0.00 94 1011.2
20260507044019 58 265 1.0 3.0 0.00 6.42 0.00 94 1011.2
20260507043542 58 264 0.0 2.0 0.00 6.42 0.00 94 1011.2
20260507043031 58 264 1.0 2.0 0.00 6.42 0.00 94 1011.1
20260507042514 58 264 0.0 2.0 0.00 6.42 0.00 94 1011.1
20260507042033 58 264 0.0 1.0 0.00 6.42 0.00 94 1011.0
20260507041516 58 264 0.0 1.0 0.00 6.42 0.00 94 1011.1
20260507041035 58 264 0.0 2.0 0.00 6.42 0.00 94 1011.0
20260507040516 59 264 1.0 3.0 0.00 6.42 0.00 94 1010.9
20260507040027 59 263 0.0 4.0 0.00 6.42 0.00 94 1010.9
20260507035529 59 262 1.0 3.0 0.00 6.42 0.00 94 1010.9
20260507035014 59 262 0.0 3.0 0.00 6.42 0.00 94 1010.8
20260507034516 59 261 2.0 3.0 0.00 6.42 0.00 94 1010.8
20260507034016 59 260 0.0 3.0 0.00 6.42 0.00 94 1010.8
20260507033518 59 260 1.0 4.0 0.00 6.42 0.00 94 1010.7
20260507033029 59 259 2.0 4.0 0.00 6.42 0.00 94 1010.8
20260507032552 59 257 0.0 1.0 0.00 6.42 0.00 94 1010.8
20260507032030 59 257 0.0 0.0 0.00 6.42 0.00 94 1010.9
20260507031514 59 257 0.0 0.0 0.00 6.42 0.00 94 1010.8
20260507031013 60 257 0.0 1.0 0.00 6.42 0.00 94 1010.8
20260507030515 60 257 0.0 1.0 0.00 6.42 0.00 94 1010.8
20260507030048 60 257 0.0 2.0 0.00 6.46 0.00 94 1010.8
20260507025528 60 257 1.0 7.0 0.00 6.46 0.00 94 1010.7
20260507025029 60 257 3.0 7.0 0.00 6.46 0.00 94 1010.8
20260507024532 60 262 2.0 3.0 0.00 6.46 0.00 94 1010.7
20260507024032 60 261 0.0 3.0 0.00 6.46 0.00 94 1010.7
20260507023535 60 261 2.0 7.0 0.00 6.46 0.00 94 1010.7
20260507023026 60 261 3.0 7.0 0.00 6.46 0.00 95 1010.7
20260507022529 60 256 3.0 7.0 0.00 6.46 0.00 95 1010.7
20260507022014 59 252 4.0 7.0 0.00 6.46 0.00 95 1010.7
20260507021517 59 250 3.0 7.0 0.00 6.46 0.00 95 1010.7
20260507021016 59 246 2.0 4.0 0.00 6.46 0.00 95 1010.6
20260507020517 59 246 1.0 4.0 0.00 6.46 0.00 95 1010.7
20260507020029 59 246 2.0 4.0 0.00 6.54 0.00 95 1010.7
20260507015552 59 244 1.0 2.0 0.00 6.54 0.00 95 1010.7
20260507015031 59 244 1.0 2.0 0.00 6.54 0.00 95 1010.7
20260507014533 59 244 0.0 4.0 0.00 6.54 0.00 95 1010.7
20260507014031 59 244 1.0 4.0 0.00 6.54 0.00 95 1010.7
20260507013536 59 243 1.0 5.0 0.00 6.54 0.00 95 1010.8
20260507013025 59 244 2.0 5.0 0.00 6.54 0.00 95 1010.8
20260507012529 59 242 1.0 2.0 0.00 6.54 0.00 95 1010.7
20260507012030 59 242 0.0 1.0 0.00 6.54 0.00 95 1010.6
20260507011533 59 242 0.0 1.0 0.00 6.54 0.00 95 1010.7
20260507011033 59 242 0.0 2.0 0.00 6.54 0.00 95 1010.7
20260507010518 59 242 1.0 3.0 0.00 6.54 0.00 95 1010.7
20260507010030 59 242 1.0 3.0 0.00 8.82 0.00 95 1010.6
20260507005554 59 242 0.0 1.0 0.00 8.82 0.00 95 1010.6
20260507005013 59 242 0.0 1.0 0.00 8.82 0.00 95 1010.7
20260507004536 59 242 0.0 2.0 0.00 8.82 0.00 95 1010.6
20260507004017 59 242 0.0 2.0 0.00 8.82 0.00 95 1010.6
20260507003521 59 242 1.0 2.0 0.00 8.82 0.00 95 1010.7
20260507003014 59 242 0.0 2.0 0.00 8.82 0.00 95 1010.7
20260507002516 59 242 1.0 5.0 0.00 8.82 0.00 95 1010.7
20260507002015 59 242 1.0 5.0 0.00 8.82 0.00 95 1010.8
20260507001518 59 242 1.0 4.0 0.00 8.82 0.00 95 1010.8
20260507001018 59 242 1.0 4.0 0.00 8.82 0.00 95 1010.8
20260507000522 59 242 0.0 0.0 0.00 8.82 0.00 95 1010.8
20260507000014 59 242 0.0 0.0 0.00 9.76 0.00 95 1010.8
20260506235518 59 242 0.0 1.0 0.00 9.76 0.00 95 1010.8
20260506235018 59 242 0.0 2.0 0.00 9.76 0.00 95 1010.8
20260506234525 59 242 0.0 2.0 0.00 9.76 0.00 95 1010.8
20260506234026 59 242 0.0 2.0 0.00 9.76 0.00 95 1010.9
20260506233529 59 242 0.0 3.0 0.00 9.76 0.00 95 1010.9
20260506233020 59 242 2.0 4.0 0.00 9.76 0.00 95 1010.9
20260506232525 59 242 3.0 4.0 0.00 9.76 0.00 94 1011.0
20260506232045 59 243 1.0 2.0 0.00 9.76 0.00 94 1011.0
20260506231526 59 243 0.0 3.0 0.00 9.76 0.00 94 1011.1
20260506231047 59 243 1.0 3.0 0.00 9.76 0.00 94 1011.1
20260506230530 59 243 1.0 3.0 0.00 9.76 0.00 94 1011.1
20260506230022 59 243 0.0 2.0 0.00 9.76 0.00 94 1011.2
20260506225525 59 243 0.0 2.0 0.00 9.76 0.00 94 1011.2
20260506225024 59 243 0.0 2.0 0.00 9.76 0.00 94 1011.1
20260506224548 59 243 0.0 3.0 0.00 9.76 0.00 94 1011.1
20260506224026 59 243 1.0 5.0 0.00 9.76 0.00 94 1011.0
20260506223529 59 243 2.0 5.0 0.00 9.76 0.00 94 1011.0
20260506223019 59 239 2.0 8.0 0.00 9.76 0.00 94 1010.9
20260506222542 59 237 3.0 8.0 0.00 9.76 0.00 95 1011.0
20260506222021 59 229 2.0 5.0 0.04 9.76 0.00 95 1011.0
20260506221529 59 226 2.0 4.0 0.04 9.76 0.00 95 1011.0
20260506221031 59 225 2.0 3.0 0.04 9.76 0.00 95 1010.9
20260506220515 59 225 2.0 3.0 0.04 9.76 0.00 95 1010.9
20260506220028 59 225 0.0 4.0 0.04 9.76 2.48 95 1010.9
20260506215532 59 225 1.0 3.0 0.04 9.76 2.48 95 1010.9
20260506215053 59 225 0.0 2.0 0.04 9.76 2.48 95 1010.9
20260506214516 59 225 1.0 3.0 0.04 9.76 2.48 94 1010.9
20260506214033 59 225 1.0 3.0 0.04 9.76 2.48 94 1010.9
20260506213516 59 225 1.0 3.0 0.04 9.76 2.48 94 1010.9
20260506213027 59 225 1.0 3.0 0.04 9.76 2.48 94 1010.9
20260506212532 59 225 2.0 3.0 0.04 9.76 2.48 94 1010.9
20260506212013 59 225 1.0 2.0 0.00 9.72 2.47 94 1010.9
20260506211517 59 225 0.0 1.0 0.00 9.72 2.47 94 1010.9
20260506211021 59 225 1.0 3.0 0.00 9.72 2.47 94 1011.0
20260506210521 59 225 1.0 3.0 0.00 9.72 2.47 94 1011.0
20260506210033 59 225 1.0 3.0 0.00 9.72 2.47 94 1011.0
20260506205515 59 225 1.0 3.0 0.00 9.72 2.47 94 1011.0